Regional Weather Roundup
Issued by NWS

Home | Current Version | Previous Version | Text Only | Print | Product List | Glossary Off
Versions: 1 2 3 4 5 6 7 8 9 10 11 12 13 14 15 16 17 18 19 20 21 22 23 24 25 26 27

000
ASUS45 KSLC 271610
RWRUT

UTAH REGIONAL WEATHER ROUNDUP
NATIONAL WEATHER SERVICE SALT LAKE CITY UT
900 AM MST MON FEB 27 2017

UTZ001>011-023>025-271700-

NORTHERN UTAH

CITY           SKY/WX    TMP DP  RH WIND       PRES   REMARKS
BRIGHAM CITY     N/A     30  27  88 E5        29.65R WCI  25
HILL AFB       LGT SNOW  27  27 100 E7        29.63F FOG     WCI  19
LOGAN          CLOUDY    29  25  85 E5        29.64R WCI  24
OGDEN          LGT SNOW  28  27  96 E6        29.64S FOG     WCI  22
SALT LAKE CITY LGT SNOW  30  29  96 NE7       29.66S VSB 3/4 WCI  23
TOOELE VALLEY  LGT SNOW  32  32 100 E5        29.67R VSB 3/4 WCI  27
WENDOVER       PTSUNNY   30  27  86 SE7       29.65S WCI  23
HEBER CITY     SNOW      30  28  93 E5        29.57R VSB 1/2 WCI  25
WEST JORDAN    CLOUDY    32  32 100 N5        29.67R VSB 3/4 WCI  27

$$

UTZ011>015-024>027-271700-

CENTRAL/NORTHEAST UTAH

CITY           SKY/WX    TMP DP  RH WIND       PRES   REMARKS
PROVO AIRPORT  LGT RAIN  32  30  92 N14       29.65R WCI  22
MOAB/CANYONLAN CLOUDY    44  25  47 S13       29.69R
DELTA          CLOUDY    36  32  87 S17G24    29.64R WCI  25
PRICE          CLOUDY    32  22  66 E6        29.63R WCI  26
ROOSEVELT      CLOUDY    28  19  69 CALM      29.67R
VERNAL         CLOUDY    26  16  65 CALM      29.64R

$$

UTZ013>016-019>022-027-271700-

SOUTHERN UTAH

CITY           SKY/WX    TMP DP  RH WIND       PRES   REMARKS
BRYCE CANYON   FLURRIES  27  20  75 S23       29.71S WCI  12
CEDAR CITY     PTSUNNY   37  23  56 SW25G36   29.68R WCI  25
MILFORD        CLOUDY    38  28  67 SW20      29.67R WCI  28
ST GEORGE      CLOUDY    48  30  49 SE16      29.79R
HANKSVILLE     CLOUDY    45  23  42 S20       29.72R
BLANDING       CLOUDY    37  25  61 S17G24    29.88R WCI  28

$$

REGIONAL REPORTS     COLORADO/ARIZONA

CITY           SKY/WX    TMP DP  RH WIND       PRES   REMARKS
CRAIG, CO      CLOUDY    36  19  50 SW23G31   29.61S WCI  24
GRAND JUNCTION CLOUDY    42  25  50 S9G22     29.71R
RIFLE, CO      CLOUDY    40  22  48 W18G24    29.69R WCI  31
MONTROSE, CO   CLOUDY    37  14  38 SW8       29.78R WCI  31
CORTEZ, CO     CLOUDY    37  25  61 SE14      29.85R WCI  28
COLORADO CITY  PTSUNNY   41  30  65 S10G16    29.84R
PAGE, AZ       PTSUNNY   48  17  29 SW10      29.77S
GRAND CANYON   CLOUDY    33  26  75 SW17G32   29.88R WCI  22
KINGMAN, AZ    CLOUDY    47  12  24 E8        29.86R
FLAGSTAFF, AZ  LGT SNOW  30  26  85 SW15      29.91R FOG     WCI  19

$$

REGIONAL REPORTS    NEVADA/IDAHO/WYOMING

CITY           SKY/WX    TMP DP  RH WIND       PRES   REMARKS
LAS VEGAS, NV  PTSUNNY   51  27  39 S15G21    29.76R
ELY, NY        PTSUNNY   30  20  66 SW10      29.64R WCI  21
ELKO, NV       CLOUDY    26  19  74 SW10      29.70R WCI  16
POCATELLO, ID  CLOUDY    24  21  88 E5        29.62F WCI  18
BURLEY, ID     HVY SNOW  27  24  89 CALM      29.63R VSB 1/4
FORT BRIDGER,  LGT SNOW  22  22 100 W7        29.62R VSB 3/4 WCI  13
EVANSTON, WY   LGT SNOW  21  15  78 NW14      29.58S VSB 1   WCI   8
ROCK SPRINGS,  SNOW      21  17  84 W8        29.59R VSB 1/2 WCI  11

$$




USA.gov is the U.S. government's official web portal to all federal, state and local government web resources and services.